Location: Doux
(49.5045°N, 4.4321°E)
Time: 03:22:48
(UTC+00:00)

SJ 16-02 - Pass Details

Date: 23 May 2024
Orbit: 594 x 606 km, 75.0° (Epoch: 17 June)

Event Time Altitude Azimuth Distance (km) Brightness Sun altitude
Exits shadow 01:40:33 14° 162° (SSE) 1,653 3.2 -14.8°
Maximum altitude 01:43:40 34° 103° (ESE) 983 2.5 -14.6°
Drops below altitude 10° 01:47:35 10° 38° (NE) 1,939 5.3 -14.3°
Sets 01:49:57 0° 29° (NNE) 2,846 6.8 -14.1°
